Time,TemperatureF,DewpointF,PressureIn,WindDirection,WindDirectionDegrees,WindSpeedMPH,WindSpeedGustMPH,Humidity,HourlyPrecipIn,Conditions,Clouds,dailyrainin,SoftwareType,DateUTC
2013-01-22 00:09:00,16.5,7.0,30.26,WSW,248,1.0,11.0,67,0.00,,,0.00,weatherlink.com 1.10,2013-01-22 05:09:00,
2013-01-22 00:24:00,16.1,7.0,30.27,NW,316,3.0,7.0,68,0.00,,,0.00,weatherlink.com 1.10,2013-01-22 05:24:00,
2013-01-22 00:39:00,15.2,6.0,30.26,NNE,18,2.0,12.0,68,0.00,,,0.00,weatherlink.com 1.10,2013-01-22 05:39:00,
2013-01-22 00:54:00,14.8,6.0,30.26,SW,235,1.0,9.0,69,0.00,,,0.00,weatherlink.com 1.10,2013-01-22 05:54:00,
2013-01-22 01:09:00,14.6,7.0,30.27,NE,34,1.0,12.0,72,0.00,,,0.00,weatherlink.com 1.10,2013-01-22 06:09:00,
2013-01-22 01:24:00,14.3,7.0,30.27,NW,304,3.0,10.0,71,0.00,,,0.00,weatherlink.com 1.10,2013-01-22 06:24:00,
2013-01-22 01:39:00,13.9,6.0,30.27,NNW,341,1.0,13.0,71,0.00,,,0.00,weatherlink.com 1.10,2013-01-22 06:39:00,
2013-01-22 01:54:00,13.3,6.0,30.28,SW,233,1.0,10.0,73,0.00,,,0.00,weatherlink.com 1.10,2013-01-22 06:54:00,
2013-01-22 02:09:00,13.0,6.0,30.28,NW,315,3.0,9.0,73,0.00,,,0.00,weatherlink.com 1.10,2013-01-22 07:09:00,
2013-01-22 02:24:00,12.5,6.0,30.29,NE,36,1.0,10.0,75,0.00,,,0.00,weatherlink.com 1.10,2013-01-22 07:24:00,
2013-01-22 02:39:00,11.8,5.0,30.30,North,350,4.0,10.0,75,0.00,,,0.00,weatherlink.com 1.10,2013-01-22 07:39:00,
2013-01-22 02:54:00,11.3,5.0,30.30,NNW,339,4.0,11.0,76,0.00,,,0.00,weatherlink.com 1.10,2013-01-22 07:54:00,
2013-01-22 03:09:00,10.8,5.0,30.30,NNW,327,0.0,8.0,76,0.00,,,0.00,weatherlink.com 1.10,2013-01-22 08:09:00,
2013-01-22 03:24:00,10.5,4.0,30.30,NW,308,5.0,11.0,76,0.00,,,0.00,weatherlink.com 1.10,2013-01-22 08:24:00,
2013-01-22 03:39:00,10.2,4.0,30.31,NW,306,4.0,12.0,77,0.00,,,0.00,weatherlink.com 1.10,2013-01-22 08:39:00,
2013-01-22 03:54:00,9.6,3.0,30.31,NNW,348,3.0,11.0,75,0.00,,,0.00,weatherlink.com 1.10,2013-01-22 08:54:00,
2013-01-22 04:09:00,9.5,3.0,30.31,WNW,301,3.0,8.0,75,0.00,,,0.00,weatherlink.com 1.10,2013-01-22 09:09:00,
2013-01-22 04:24:00,-999.0,-99.9,30.31,North,-999,-999.0,-999.0,-999,0.00,,,0.00,weatherlink.com 1.10,2013-01-22 09:24:00,
2013-01-22 04:40:00,-999.0,-99.9,30.30,North,-999,-999.0,-999.0,-999,0.00,,,0.00,weatherlink.com 1.10,2013-01-22 09:40:00,
2013-01-22 04:55:00,8.6,1.0,30.31,SSE,160,8.0,13.0,72,0.00,,,0.00,weatherlink.com 1.10,2013-01-22 09:55:00,
2013-01-22 05:10:00,8.5,2.0,30.31,WSW,246,0.0,12.0,73,0.00,,,0.00,weatherlink.com 1.10,2013-01-22 10:10:00,
2013-01-22 05:25:00,8.2,2.0,30.32,NW,311,2.0,7.0,75,0.00,,,0.00,weatherlink.com 1.10,2013-01-22 10:25:00,
2013-01-22 05:40:00,7.8,1.0,30.33,West,269,0.0,13.0,72,0.00,,,0.00,weatherlink.com 1.10,2013-01-22 10:40:00,
2013-01-22 05:55:00,7.4,0.0,30.34,NNE,16,1.0,10.0,72,0.00,,,0.00,weatherlink.com 1.10,2013-01-22 10:55:00,
2013-01-22 06:10:00,7.3,1.0,30.34,NNE,30,4.0,11.0,74,0.00,,,0.00,weatherlink.com 1.10,2013-01-22 11:10:00,
2013-01-22 06:25:00,6.9,0.0,30.34,NW,307,2.0,9.0,72,0.00,,,0.00,weatherlink.com 1.10,2013-01-22 11:25:00,
2013-01-22 06:40:00,6.9,0.0,30.35,West,270,1.0,4.0,74,0.00,,,0.00,weatherlink.com 1.10,2013-01-22 11:40:00,
2013-01-22 06:55:00,6.9,1.0,30.36,NW,310,1.0,7.0,75,0.00,,,0.00,weatherlink.com 1.10,2013-01-22 11:55:00,
2013-01-22 07:10:00,6.5,0.0,30.37,NNE,12,2.0,7.0,73,0.00,,,0.00,weatherlink.com 1.10,2013-01-22 12:10:00,
2013-01-22 07:25:00,6.4,0.0,30.37,NNW,342,1.0,5.0,75,0.00,,,0.00,weatherlink.com 1.10,2013-01-22 12:25:00,
2013-01-22 07:40:00,6.3,0.0,30.38,NW,319,0.0,5.0,75,0.00,,,0.00,weatherlink.com 1.10,2013-01-22 12:40:00,
2013-01-22 07:55:00,6.2,0.0,30.40,NNW,343,1.0,4.0,75,0.00,,,0.00,weatherlink.com 1.10,2013-01-22 12:55:00,
2013-01-22 08:11:00,6.2,0.0,30.40,NNW,333,2.0,5.0,77,0.00,,,0.00,weatherlink.com 1.10,2013-01-22 13:11:00,
2013-01-22 08:26:00,6.2,0.0,30.42,NNE,15,0.0,6.0,77,0.00,,,0.00,weatherlink.com 1.10,2013-01-22 13:26:00,
2013-01-22 08:41:00,6.5,1.0,30.42,WNW,292,2.0,5.0,76,0.00,,,0.00,weatherlink.com 1.10,2013-01-22 13:41:00,
2013-01-22 08:56:00,6.7,0.0,30.43,ESE,114,0.0,11.0,75,0.00,,,0.00,weatherlink.com 1.10,2013-01-22 13:56:00,
2013-01-22 09:11:00,7.4,1.0,30.43,NW,304,1.0,7.0,75,0.00,,,0.00,weatherlink.com 1.10,2013-01-22 14:11:00,
2013-01-22 09:26:00,8.3,2.0,30.44,North,360,5.0,8.0,74,0.00,,,0.00,weatherlink.com 1.10,2013-01-22 14:26:00,
2013-01-22 09:41:00,8.8,2.0,30.44,NNW,344,1.0,7.0,72,0.00,,,0.00,weatherlink.com 1.10,2013-01-22 14:41:00,
2013-01-22 09:56:00,9.1,2.0,30.45,SW,234,8.0,15.0,73,0.00,,,0.00,weatherlink.com 1.10,2013-01-22 14:56:00,
2013-01-22 10:11:00,10.4,3.0,30.46,NNE,29,10.0,10.0,72,0.00,,,0.00,weatherlink.com 1.10,2013-01-22 15:11:00,
2013-01-22 10:26:00,10.7,2.0,30.46,NW,306,0.0,7.0,68,0.00,,,0.00,weatherlink.com 1.10,2013-01-22 15:26:00,
2013-01-22 10:41:00,10.8,3.0,30.46,East,96,2.0,9.0,69,0.00,,,0.00,weatherlink.com 1.10,2013-01-22 15:41:00,
2013-01-22 10:56:00,11.3,2.0,30.47,South,189,1.0,9.0,67,0.00,,,0.00,weatherlink.com 1.10,2013-01-22 15:56:00,
2013-01-22 11:11:00,11.5,3.0,30.47,West,265,3.0,10.0,69,0.00,,,0.00,weatherlink.com 1.10,2013-01-22 16:11:00,
2013-01-22 11:27:00,11.3,2.0,30.46,NNW,342,7.0,8.0,66,0.00,,,0.00,weatherlink.com 1.10,2013-01-22 16:27:00,
2013-01-22 11:42:00,11.9,4.0,30.46,SW,225,0.0,8.0,70,0.00,,,0.00,weatherlink.com 1.10,2013-01-22 16:42:00,
2013-01-22 11:57:00,12.6,3.0,30.47,WSW,239,6.0,12.0,64,0.00,,,0.00,weatherlink.com 1.10,2013-01-22 16:57:00,
2013-01-22 12:12:00,12.8,4.0,30.46,WSW,247,4.0,10.0,67,0.00,,,0.00,weatherlink.com 1.10,2013-01-22 17:12:00,
2013-01-22 12:27:00,14.6,4.0,30.46,NE,36,2.0,10.0,64,0.00,,,0.00,weatherlink.com 1.10,2013-01-22 17:27:00,
2013-01-22 12:42:00,14.8,3.0,30.46,NW,313,4.0,10.0,61,0.00,,,0.00,weatherlink.com 1.10,2013-01-22 17:42:00,
2013-01-22 12:57:00,14.4,5.0,30.45,NE,45,1.0,9.0,66,0.00,,,0.00,weatherlink.com 1.10,2013-01-22 17:57:00,
2013-01-22 13:12:00,15.5,5.0,30.45,West,278,3.0,10.0,62,0.00,,,0.00,weatherlink.com 1.10,2013-01-22 18:12:00,
2013-01-22 13:27:00,14.7,4.0,30.45,SW,236,1.0,9.0,63,0.00,,,0.00,weatherlink.com 1.10,2013-01-22 18:27:00,
2013-01-22 13:42:00,14.8,5.0,30.45,NNW,344,5.0,15.0,64,0.00,,,0.00,weatherlink.com 1.10,2013-01-22 18:42:00,
2013-01-22 13:57:00,14.7,2.0,30.45,SSW,197,4.0,17.0,58,0.00,,,0.00,weatherlink.com 1.10,2013-01-22 18:57:00,
2013-01-22 14:12:00,14.5,5.0,30.44,West,280,1.0,9.0,65,0.00,,,0.00,weatherlink.com 1.10,2013-01-22 19:12:00,
2013-01-22 14:27:00,14.8,4.0,30.45,SSW,205,0.0,10.0,63,0.00,,,0.00,weatherlink.com 1.10,2013-01-22 19:27:00,
2013-01-22 14:42:00,15.3,5.0,30.45,NE,49,1.0,8.0,65,0.00,,,0.00,weatherlink.com 1.10,2013-01-22 19:42:00,
2013-01-22 14:58:00,15.1,5.0,30.45,North,5,1.0,9.0,64,0.00,,,0.00,weatherlink.com 1.10,2013-01-22 19:58:00,
2013-01-22 15:13:00,15.2,5.0,30.45,NNW,346,3.0,6.0,64,0.00,,,0.00,weatherlink.com 1.10,2013-01-22 20:13:00,
2013-01-22 15:28:00,14.8,5.0,30.45,SW,231,2.0,8.0,66,0.00,,,0.00,weatherlink.com 1.10,2013-01-22 20:28:00,
2013-01-22 15:43:00,14.4,4.0,30.46,WNW,292,6.0,9.0,63,0.00,,,0.00,weatherlink.com 1.10,2013-01-22 20:43:00,
2013-01-22 15:58:00,14.1,4.0,30.47,SE,138,0.0,8.0,63,0.00,,,0.00,weatherlink.com 1.10,2013-01-22 20:58:00,
2013-01-22 16:13:00,13.9,4.0,30.46,NW,317,3.0,6.0,65,0.00,,,0.00,weatherlink.com 1.10,2013-01-22 21:13:00,
2013-01-22 16:28:00,13.4,3.0,30.47,SE,126,0.0,6.0,64,0.00,,,0.00,weatherlink.com 1.10,2013-01-22 21:28:00,
2013-01-22 16:43:00,13.3,4.0,30.47,SW,215,0.0,7.0,67,0.00,,,0.00,weatherlink.com 1.10,2013-01-22 21:43:00,
2013-01-22 16:58:00,13.2,4.0,30.49,West,281,1.0,7.0,67,0.00,,,0.00,weatherlink.com 1.10,2013-01-22 21:58:00,
2013-01-22 17:13:00,13.0,4.0,30.50,WNW,298,0.0,7.0,67,0.00,,,0.00,weatherlink.com 1.10,2013-01-22 22:13:00,
2013-01-22 17:28:00,12.8,5.0,30.50,WSW,239,5.0,5.0,70,0.00,,,0.00,weatherlink.com 1.10,2013-01-22 22:28:00,
2013-01-22 17:43:00,12.6,4.0,30.51,SW,229,4.0,7.0,69,0.00,,,0.00,weatherlink.com 1.10,2013-01-22 22:43:00,
2013-01-22 17:58:00,12.2,4.0,30.51,WNW,284,4.0,10.0,69,0.00,,,0.00,weatherlink.com 1.10,2013-01-22 22:58:00,
2013-01-22 18:13:00,11.9,4.0,30.51,SW,234,0.0,3.0,71,0.00,,,0.00,weatherlink.com 1.10,2013-01-22 23:13:00,
2013-01-22 18:28:00,11.7,4.0,30.52,West,269,0.0,2.0,70,0.00,,,0.00,weatherlink.com 1.10,2013-01-22 23:28:00,
2013-01-22 18:43:00,11.4,4.0,30.51,SW,214,1.0,7.0,73,0.00,,,0.00,weatherlink.com 1.10,2013-01-22 23:43:00,
2013-01-22 18:58:00,11.4,3.0,30.51,North,11,0.0,5.0,70,0.00,,,0.00,weatherlink.com 1.10,2013-01-22 23:58:00,
2013-01-22 19:13:00,11.3,5.0,30.53,North,360,1.0,4.0,75,0.00,,,0.00,weatherlink.com 1.10,2013-01-23 00:13:00,
2013-01-22 19:28:00,11.2,4.0,30.52,SW,223,3.0,3.0,74,0.00,,,0.00,weatherlink.com 1.10,2013-01-23 00:28:00,
2013-01-22 19:43:00,11.0,4.0,30.52,West,265,1.0,4.0,74,0.00,,,0.00,weatherlink.com 1.10,2013-01-23 00:43:00,
2013-01-22 19:58:00,10.9,4.0,30.53,West,259,0.0,3.0,73,0.00,,,0.00,weatherlink.com 1.10,2013-01-23 00:58:00,
2013-01-22 20:13:00,10.7,4.0,30.51,NW,311,0.0,6.0,73,0.00,,,0.00,weatherlink.com 1.10,2013-01-23 01:13:00,
2013-01-22 20:28:00,10.5,4.0,30.52,WNW,288,2.0,3.0,74,0.00,,,0.00,weatherlink.com 1.10,2013-01-23 01:28:00,
2013-01-22 20:44:00,10.5,3.0,30.54,NNW,340,2.0,4.0,72,0.00,,,0.00,weatherlink.com 1.10,2013-01-23 01:44:00,
2013-01-22 20:59:00,10.6,4.0,30.54,WSW,251,1.0,5.0,73,0.00,,,0.00,weatherlink.com 1.10,2013-01-23 01:59:00,
2013-01-22 21:14:00,10.6,4.0,30.55,West,265,1.0,5.0,75,0.00,,,0.00,weatherlink.com 1.10,2013-01-23 02:14:00,
2013-01-22 21:29:00,10.7,4.0,30.54,WNW,284,1.0,5.0,73,0.00,,,0.00,weatherlink.com 1.10,2013-01-23 02:29:00,
2013-01-22 21:44:00,10.7,3.0,30.54,West,267,1.0,5.0,72,0.00,,,0.00,weatherlink.com 1.10,2013-01-23 02:44:00,
2013-01-22 21:59:00,10.5,3.0,30.55,NW,323,2.0,6.0,73,0.00,,,0.00,weatherlink.com 1.10,2013-01-23 02:59:00,
2013-01-22 22:14:00,10.5,3.0,30.54,South,174,0.0,7.0,73,0.00,,,0.00,weatherlink.com 1.10,2013-01-23 03:14:00,
2013-01-22 22:29:00,10.2,3.0,30.54,West,261,1.0,8.0,74,0.00,,,0.00,weatherlink.com 1.10,2013-01-23 03:29:00,
2013-01-22 22:44:00,9.9,4.0,30.55,NNW,336,0.0,9.0,75,0.00,,,0.00,weatherlink.com 1.10,2013-01-23 03:44:00,
2013-01-22 22:59:00,9.6,3.0,30.55,WNW,294,0.0,6.0,74,0.00,,,0.00,weatherlink.com 1.10,2013-01-23 03:59:00,
2013-01-22 23:14:00,9.3,2.0,30.55,North,355,2.0,4.0,73,0.00,,,0.00,weatherlink.com 1.10,2013-01-23 04:14:00,
2013-01-22 23:29:00,9.3,3.0,30.55,NNE,32,1.0,4.0,74,0.00,,,0.00,weatherlink.com 1.10,2013-01-23 04:29:00,
2013-01-22 23:44:00,9.1,3.0,30.56,NNE,17,1.0,4.0,75,0.00,,,0.00,weatherlink.com 1.10,2013-01-23 04:44:00,
2013-01-22 23:59:00,8.9,3.0,30.56,SW,236,0.0,5.0,75,0.00,,,0.00,weatherlink.com 1.10,2013-01-23 04:59:00,